Wind_Speed
4 4 5 5 6 7 7 7 7 8 8 8 9 9 10 10 10 10 10 10 11 11 11 11 11 12 12 11 11 11 11 12 13 13 13 13 13 13 13 12 12 12 12
4 5 5 5 6 7 6 7 7 8 9 9 10 10 10 11 11 11 11 11 11 12 12 12 12 13 13 13 13 13 13 13 13 13 13 12 13 14 15 14 14 14 13
5 5 5 5 6 7 7 7 8 9 10 11 11 12 12 12 12 12 12 12 12 12 12 13 13 13 13 14 14 13 13 13 13 13 14 14 13 13 14 14 14 15 15
6 6 6 7 7 7 8 8 9 10 10 11 12 13 13 14 14 14 13 14 13 13 13 14 14 14 14 15 15 15 15 15 16 15 15 15 15 14 14 14 15 14 14
6 6 7 8 8 8 9 9 10 10 11 11 12 13 14 14 14 15 15 15 15 15 15 15 16 16 16 16 16 16 17 17 17 16 16 15 15 15 15 15 15 15 15
6 7 7 8 8 9 10 10 11 11 11 12 12 13 14 14 15 15 15 15 16 16 17 16 17 18 18 18 17 17 17 18 17 17 16 16 15 15 15 16 16 15 16
8 8 8 8 8 9 10 11 12 12 12 12 13 13 14 15 15 16 16 16 16 16 16 17 17 18 19 19 19 19 18 18 17 16 16 16 16 15 15 16 16 16 15
9 9 9 8 9 9 10 11 12 13 13 13 14 14 15 15 16 16 17 18 17 17 18 17 17 18 19 19 20 20 19 18 17 17 18 17 17 17 17 17 17 17 16
10 9 9 9 10 10 11 11 12 14 13 14 14 15 16 16 16 17 18 18 18 19 19 19 19 19 19 19 20 20 20 19 18 18 19 18 18 19 19 18 18 18 18
10 10 10 11 11 11 11 12 12 13 13 14 15 16 17 18 18 18 19 19 20 20 20 20 21 20 20 20 21 21 21 21 21 20 20 20 21 21 20 20 20 20 20
10 10 11 12 12 12 12 13 13 14 15 15 16 16 17 19 19 20 20 20 21 22 21 21 21 21 21 21 21 22 22 22 22 22 22 21 22 22 21 21 21 21 21
11 11 12 13 13 13 13 13 13 14 15 16 17 17 18 19 20 20 21 20 21 22 22 22 22 21 21 21 21 22 22 23 23 23 23 23 23 22 22 22 22 22 22
13 13 13 13 13 13 13 14 14 14 15 15 16 17 18 19 20 20 21 21 21 21 21 22 21 22 22 22 22 23 24 24 24 24 24 24 24 24 24 23 23 23 23
14 14 13 13 13 14 14 15 15 15 15 15 16 17 18 19 19 20 20 21 21 22 22 22 23 23 23 23 24 24 24 25 25 25 25 25 25 25 25 25 24 24 24
15 15 15 14 14 14 15 15 15 15 15 16 16 16 17 18 18 19 20 21 21 22 22 23 24 24 24 25 25 26 26 26 26 27 27 27 27 26 26 26 26 26 26
15 15 15 16 16 16 16 16 16 16 17 16 17 17 17 18 19 20 21 21 22 22 22 23 24 24 24 25 26 26 27 27 27 28 28 27 27 28 27 28 28 28 27
16 16 17 17 17 17 17 18 19 18 18 18 18 18 18 18 19 20 21 22 23 23 23 24 25 26 26 26 27 27 28 28 28 28 28 28 29 29 29 29 29 29 29
17 18 18 18 18 19 19 19 20 19 19 18 18 19 19 20 20 20 21 22 23 24 25 25 26 26 27 28 28 28 28 28 28 28 28 29 29 30 30 30 30 30 30
18 19 19 19 19 19 20 20 20 20 20 20 20 20 21 21 21 22 22 22 23 24 25 26 27 27 27 28 29 29 29 29 29 29 29 29 30 30 31 31 31 31 32
19 20 21 21 21 20 21 21 21 20 21 21 21 21 22 22 21 22 23 23 24 25 25 26 27 27 27 27 28 29 29 30 29 30 29 30 30 30 31 31 31 32 32
20 21 21 21 21 22 22 22 21 21 22 22 22 22 22 23 23 23 23 24 25 25 26 27 27 27 28 28 29 29 29 30 31 31 31 31 31 31 31 31 31 32 32
21 21 22 22 23 22 23 22 22 22 22 22 22 22 22 23 23 24 24 24 25 26 26 26 26 26 27 27 28 28 28 29 30 31 32 32 32 32 32 32 32 32 31
22 22 23 23 22 22 22 22 21 21 21 21 22 22 23 23 23 24 24 25 26 26 26 26 26 26 26 27 27 27 28 29 29 30 31 31 32 32 32 32 32 32 32
24 24 23 23 23 23 23 23 22 22 22 22 23 24 24 23 23 24 25 25 25 26 25 25 25 26 26 26 27 27 27 28 28 29 30 31 32 32 32 32 32 31 31
24 24 24 24 23 23 23 23 23 23 23 23 24 24 25 25 25 25 25 26 26 26 26 25 25 25 25 26 26 27 27 27 28 29 30 31 32 33 32 32 32 32 31
25 25 24 24 23 23 24 24 24 24 24 24 25 25 25 25 25 25 25 26 26 26 26 25 26 26 26 26 26 27 27 27 28 28 28 29 30 31 31 31 31 31 31
Wind_Direction
291 280 273 267 266 264 260 256 246 242 244 246 245 244 244 243 241 243 248 250 251 252 249 247 247 246 248 249 251 253 255 256 258 258 254 251 249 250 251 255 257 258 260
290 286 279 275 272 269 267 258 250 247 251 251 250 251 250 246 247 249 250 250 250 252 251 249 250 250 251 252 255 256 259 261 264 263 261 257 254 251 252 256 257 257 257
296 290 283 283 280 271 266 262 256 257 257 255 254 254 252 248 250 254 254 251 252 254 254 252 251 252 255 257 260 258 261 262 263 265 261 261 258 258 257 256 258 256 254
303 291 281 284 281 274 271 268 264 263 264 262 259 256 254 251 250 255 257 256 255 257 257 258 255 254 255 259 264 264 264 265 265 265 265 263 257 259 259 259 261 259 255
309 295 285 283 279 274 273 272 269 266 265 265 263 258 255 252 253 256 258 256 257 258 259 259 257 258 258 260 262 265 265 265 264 264 264 263 259 257 258 262 262 259 255
308 304 299 294 282 275 274 272 270 267 266 265 264 261 257 253 253 257 260 256 258 258 260 262 261 261 259 262 263 266 268 268 265 263 263 260 258 259 259 263 262 261 259
308 304 299 293 287 280 278 274 269 269 269 266 266 265 261 255 255 259 259 257 255 257 260 262 264 263 263 264 265 268 269 269 268 266 266 262 259 261 263 264 265 264 263
309 307 302 298 291 286 286 282 275 271 269 268 267 267 263 258 259 261 261 258 259 259 261 262 264 266 267 267 266 268 269 270 267 265 264 261 260 261 262 262 263 263 264
309 308 304 300 297 291 289 286 280 274 272 271 270 268 262 259 259 261 262 264 263 261 262 262 264 266 269 268 267 268 268 266 265 263 263 262 260 259 259 261 261 262 263
311 310 306 301 298 295 292 289 285 280 275 271 268 265 262 260 259 259 262 266 266 265 264 263 263 266 268 268 267 266 266 264 265 265 263 263 262 261 260 259 259 261 263
311 309 308 307 303 299 295 292 289 284 279 275 272 267 264 262 261 262 265 266 266 266 266 264 265 267 269 269 269 267 266 263 264 263 262 264 264 261 259 260 259 260 261
306 306 307 309 308 305 301 297 294 289 284 280 276 272 269 266 265 264 264 267 266 266 266 265 267 268 268 269 270 268 267 264 265 264 263 263 264 261 260 262 261 261 260
304 305 306 307 307 307 307 304 301 297 291 284 278 275 272 270 266 265 266 266 266 267 267 267 267 268 268 268 269 268 269 266 266 265 264 261 261 261 261 262 262 262 261
305 305 303 303 306 306 305 304 302 301 297 290 284 279 275 273 267 265 267 267 268 269 270 269 267 267 268 268 269 268 270 267 267 266 265 264 263 261 261 262 262 262 261
308 305 305 304 303 304 303 302 301 299 298 295 292 287 282 278 273 270 269 268 269 270 269 269 268 268 269 268 270 270 270 269 267 268 267 266 263 262 261 262 262 262 262
306 305 307 307 304 303 304 302 300 297 298 296 295 292 287 283 279 277 274 272 271 270 270 271 271 270 271 270 270 271 271 270 270 267 266 266 264 262 262 262 261 261 261
304 303 303 304 303 302 302 301 299 297 296 295 293 291 288 286 283 281 279 277 275 272 272 272 273 271 270 271 271 272 271 270 270 267 265 265 265 263 262 261 261 260 260
302 302 301 299 298 297 297 299 299 297 294 292 293 292 289 287 285 283 283 280 278 276 275 274 274 273 272 272 272 272 270 270 269 268 266 266 266 264 262 261 261 260 260
302 302 301 299 298 298 298 297 296 295 292 291 290 289 289 288 288 286 285 284 283 282 279 276 274 274 273 273 272 272 271 270 269 268 267 267 268 266 263 261 261 262 260
303 303 302 300 301 300 298 296 293 293 291 290 290 288 288 288 288 288 287 285 285 285 283 281 277 275 274 274 273 272 272 270 269 269 269 268 268 269 266 264 263 262 260
302 304 304 302 301 301 300 298 293 292 292 292 291 289 288 287 287 288 288 287 286 287 285 283 280 277 276 275 273 273 272 271 270 269 268 268 269 269 268 266 265 262 261
307 307 308 305 301 301 302 300 299 298 293 291 290 290 289 287 286 287 288 288 288 287 287 286 283 280 279 278 278 277 274 272 270 269 269 268 269 269 268 267 265 263 262
305 305 305 305 304 303 303 304 301 300 296 293 292 292 292 290 288 288 287 287 289 288 287 287 285 283 283 281 280 281 277 273 271 270 269 268 268 268 267 267 264 263 262
305 304 302 304 304 304 303 304 302 300 298 296 295 294 293 291 289 289 290 291 290 288 289 289 287 286 284 284 284 282 281 277 274 273 270 268 268 268 266 265 263 261 261
303 303 303 302 303 302 302 301 301 301 300 297 295 294 294 294 293 292 292 293 292 290 289 288 287 286 284 284 284 283 282 281 279 276 273 271 270 268 266 263 262 261 260
302 302 301 303 304 303 302 302 301 299 299 299 297 296 295 294 294 294 294 294 294 293 290 289 288 286 285 284 284 283 281 281 281 280 277 274 271 268 265 262 261 260 258
Height
5876 5876 5876 5875 5875 5875 5875 5874 5875 5875 5875 5876 5876 5877 5877 5878 5878 5879 5879 5880 5880 5881 5881 5881 5881 5882 5882 5882 5882 5883 5883 5883 5883 5883 5883 5884 5884 5885 5885 5885 5886 5886 5887
5875 5875 5874 5874 5874 5873 5873 5873 5873 5873 5874 5874 5874 5875 5875 5876 5876 5877 5877 5878 5878 5878 5879 5879 5879 5879 5879 5880 5880 5880 5880 5881 5881 5880 5881 5881 5882 5882 5882 5883 5883 5883 5884
5874 5873 5873 5872 5872 5871 5871 5871 5871 5871 5872 5872 5872 5872 5873 5873 5874 5875 5875 5875 5875 5876 5876 5876 5876 5877 5877 5877 5877 5878 5878 5878 5878 5878 5878 5878 5879 5879 5879 5880 5880 5880 5881
5873 5872 5871 5871 5870 5870 5869 5869 5869 5869 5869 5869 5869 5870 5870 5871 5871 5872 5872 5872 5872 5873 5873 5874 5874 5874 5874 5874 5874 5874 5875 5875 5875 5875 5875 5875 5875 5876 5876 5877 5877 5877 5878
5872 5871 5870 5869 5868 5867 5867 5867 5867 5867 5867 5867 5867 5867 5867 5868 5869 5869 5869 5869 5869 5870 5870 5870 5871 5871 5871 5871 5871 5871 5871 5871 5871 5871 5872 5872 5872 5872 5873 5873 5874 5874 5875
5870 5869 5868 5867 5866 5865 5865 5865 5864 5864 5864 5864 5864 5864 5864 5865 5865 5866 5866 5866 5866 5867 5867 5867 5867 5867 5868 5868 5868 5868 5867 5867 5867 5868 5868 5868 5869 5869 5869 5870 5871 5871 5871
5869 5868 5867 5865 5864 5863 5862 5862 5861 5861 5861 5861 5861 5861 5861 5861 5862 5862 5863 5863 5863 5863 5863 5863 5863 5863 5864 5864 5864 5864 5864 5863 5864 5864 5864 5865 5865 5865 5866 5867 5867 5868 5868
5867 5866 5865 5863 5862 5861 5860 5859 5858 5858 5858 5857 5858 5858 5858 5859 5858 5858 5858 5859 5859 5859 5859 5859 5859 5859 5859 5860 5860 5860 5859 5859 5860 5860 5860 5861 5861 5862 5862 5863 5863 5864 5864
5865 5864 5862 5861 5860 5859 5857 5856 5855 5855 5854 5854 5854 5854 5854 5855 5854 5854 5854 5854 5854 5855 5855 5855 5855 5855 5855 5855 5855 5855 5855 5855 5855 5855 5856 5856 5856 5857 5858 5858 5859 5860 5860
5863 5862 5860 5859 5857 5856 5855 5853 5852 5851 5851 5850 5850 5850 5850 5850 5850 5850 5850 5850 5850 5850 5850 5850 5850 5850 5850 5850 5850 5850 5850 5850 5850 5851 5851 5851 5851 5852 5853 5854 5854 5855 5856
5860 5859 5857 5856 5854 5853 5851 5850 5849 5848 5847 5846 5845 5845 5845 5845 5845 5846 5846 5845 5845 5845 5845 5845 5845 5845 5845 5845 5845 5845 5845 5845 5845 5845 5846 5846 5846 5847 5847 5848 5849 5850 5850
5858 5856 5855 5853 5851 5850 5848 5846 5845 5843 5842 5841 5841 5840 5840 5840 5840 5840 5840 5840 5840 5839 5839 5839 5840 5840 5839 5839 5839 5839 5839 5839 5839 5839 5840 5840 5841 5841 5842 5842 5843 5844 5845
5855 5853 5852 5850 5848 5846 5845 5843 5841 5839 5838 5837 5836 5836 5835 5835 5835 5835 5835 5834 5834 5834 5834 5834 5834 5834 5834 5834 5834 5833 5833 5833 5833 5834 5834 5834 5835 5835 5836 5836 5837 5838 5839
5852 5850 5848 5847 5845 5843 5841 5839 5838 5836 5834 5833 5832 5831 5830 5830 5829 5829 5829 5829 5829 5829 5828 5828 5828 5828 5828 5828 5828 5827 5827 5827 5827 5827 5827 5828 5828 5829 5830 5830 5831 5832 5832
5849 5847 5845 5843 5841 5839 5837 5836 5834 5832 5831 5829 5828 5826 5825 5825 5824 5824 5823 5823 5823 5823 5823 5822 5822 5822 5821 5821 5821 5821 5820 5820 5820 5820 5820 5821 5821 5822 5823 5823 5824 5825 5826
5846 5844 5842 5840 5838 5836 5834 5832 5830 5828 5827 5825 5823 5822 5821 5820 5819 5818 5818 5818 5817 5817 5817 5816 5815 5815 5815 5815 5814 5814 5814 5813 5813 5813 5813 5813 5814 5815 5815 5816 5817 5818 5819
5842 5840 5838 5836 5834 5832 5830 5828 5826 5824 5823 5821 5819 5817 5816 5815 5814 5813 5813 5812 5811 5811 5810 5810 5809 5808 5808 5808 5807 5807 5806 5806 5806 5806 5806 5806 5806 5807 5807 5808 5809 5810 5811
5838 5836 5833 5831 5829 5827 5825 5823 5821 5819 5818 5816 5814 5813 5811 5810 5809 5808 5807 5806 5805 5804 5804 5803 5802 5801 5800 5800 5799 5799 5798 5798 5797 5797 5798 5798 5798 5798 5799 5800 5801 5802 5803
5833 5831 5829 5827 5825 5822 5820 5818 5816 5814 5813 5811 5809 5807 5806 5805 5803 5802 5801 5799 5798 5797 5796 5795 5794 5793 5792 5791 5791 5790 5790 5789 5789 5789 5789 5789 5789 5790 5790 5791 5792 5793 5794
5829 5827 5824 5822 5820 5818 5815 5813 5811 5809 5807 5805 5803 5802 5800 5799 5797 5796 5794 5793 5792 5790 5789 5788 5786 5785 5784 5783 5782 5782 5781 5780 5780 5780 5780 5780 5780 5780 5781 5782 5783 5784 5784
5824 5822 5819 5817 5815 5813 5810 5808 5805 5803 5802 5800 5798 5796 5794 5793 5791 5790 5788 5786 5785 5783 5782 5780 5779 5777 5776 5775 5774 5773 5772 5771 5771 5771 5771 5771 5771 5771 5771 5772 5773 5774 5775
5820 5817 5815 5812 5810 5808 5805 5802 5800 5798 5796 5794 5791 5789 5788 5786 5785 5783 5781 5780 5778 5776 5774 5772 5771 5769 5768 5767 5766 5764 5763 5763 5762 5762 5761 5762 5761 5762 5762 5762 5763 5764 5765
5815 5812 5810 5807 5804 5802 5800 5797 5794 5792 5789 5787 5785 5783 5781 5779 5778 5776 5774 5773 5771 5768 5767 5765 5763 5761 5760 5759 5758 5756 5754 5753 5753 5752 5751 5751 5752 5752 5752 5752 5753 5754 5755
5809 5807 5804 5802 5799 5796 5794 5791 5789 5786 5784 5781 5779 5777 5774 5772 5770 5769 5767 5765 5763 5761 5759 5757 5755 5754 5752 5750 5749 5748 5746 5745 5744 5743 5742 5742 5742 5742 5742 5742 5743 5744 5745
5804 5801 5799 5796 5793 5790 5788 5785 5783 5780 5777 5775 5772 5770 5768 5765 5763 5761 5759 5757 5754 5752 5750 5749 5747 5745 5744 5742 5741 5739 5738 5736 5735 5733 5732 5732 5731 5731 5731 5732 5733 5734 5735
5798 5795 5793 5790 5787 5785 5782 5779 5776 5774 5771 5768 5766 5763 5761 5759 5756 5754 5751 5749 5746 5744 5742 5741 5739 5737 5735 5734 5732 5730 5729 5727 5726 5724 5723 5722 5721 5720 5721 5721 5722 5724 5725